TimeEDT,TemperatureF,Dew PointF,Humidity,Sea Level PressureIn,VisibilityMPH,Wind Direction,Wind SpeedMPH,Gust SpeedMPH,PrecipitationIn,Events,Conditions,WindDirDegrees,DateUTC
12:53 AM,82.9,77.0,82,30.06,10.0,East,4.6,-,0.07,,Partly Cloudy,80,2013-08-21 04:53:00
1:26 AM,82.4,75.2,79,30.05,10.0,East,9.2,-,N/A,Thunderstorm,Partly Cloudy,90,2013-08-21 05:26:00
1:53 AM,79.0,73.9,84,30.06,9.0,East,8.1,-,0.04,Rain-Thunderstorm,Thunderstorms and Rain,90,2013-08-21 05:53:00
2:22 AM,78.8,75.2,89,30.03,10.0,ESE,3.5,-,0.01,,Partly Cloudy,110,2013-08-21 06:22:00
2:53 AM,79.0,75.0,88,30.04,10.0,SSE,3.5,-,0.01,,Partly Cloudy,160,2013-08-21 06:53:00
3:53 AM,80.1,75.9,87,30.03,10.0,Calm,Calm,-,0.02,,Clear,0,2013-08-21 07:53:00
4:53 AM,81.0,77.0,88,30.02,10.0,NE,3.5,-,N/A,,Clear,40,2013-08-21 08:53:00
5:25 AM,80.6,77.0,89,30.03,10.0,NNE,9.2,-,0.00,Thunderstorm,Mostly Cloudy,30,2013-08-21 09:25:00
5:35 AM,80.6,75.2,84,30.03,10.0,East,4.6,-,0.00,Rain-Thunderstorm,Light Rain,80,2013-08-21 09:35:00
5:46 AM,80.6,75.2,84,30.03,10.0,Calm,Calm,-,0.00,Rain,Light Rain,0,2013-08-21 09:46:00
5:53 AM,80.1,75.9,87,30.03,10.0,Calm,Calm,-,0.00,,Scattered Clouds,0,2013-08-21 09:53:00
6:53 AM,81.0,75.9,85,30.04,10.0,Calm,Calm,-,0.02,,Scattered Clouds,0,2013-08-21 10:53:00
7:53 AM,81.0,73.9,79,30.04,10.0,ENE,5.8,-,N/A,,Scattered Clouds,60,2013-08-21 11:53:00
8:07 AM,80.6,73.4,79,30.06,10.0,East,5.8,-,N/A,Thunderstorm,Thunderstorm,80,2013-08-21 12:07:00
8:48 AM,80.6,73.4,79,30.07,10.0,East,4.6,-,N/A,,Partly Cloudy,80,2013-08-21 12:48:00
8:53 AM,80.1,73.9,81,30.07,10.0,ENE,3.5,-,N/A,,Partly Cloudy,70,2013-08-21 12:53:00
9:53 AM,82.0,75.9,82,30.08,10.0,NNE,5.8,-,0.00,Rain,Light Rain,20,2013-08-21 13:53:00
10:53 AM,87.1,78.1,74,30.07,10.0,East,15.0,-,0.00,,Mostly Cloudy,80,2013-08-21 14:53:00
11:53 AM,88.0,77.0,70,30.07,10.0,East,15.0,-,0.01,,Mostly Cloudy,90,2013-08-21 15:53:00
12:43 PM,91.4,75.2,59,30.07,10.0,ESE,16.1,-,N/A,,Mostly Cloudy,110,2013-08-21 16:43:00
12:53 PM,91.0,75.9,61,30.07,10.0,East,13.8,21.9,N/A,,Partly Cloudy,100,2013-08-21 16:53:00
1:05 PM,91.4,75.2,59,30.06,10.0,ESE,15.0,-,N/A,,Mostly Cloudy,120,2013-08-21 17:05:00
1:53 PM,91.9,75.9,59,30.06,10.0,East,15.0,23.0,N/A,,Mostly Cloudy,100,2013-08-21 17:53:00
2:01 PM,91.4,75.2,59,30.05,10.0,East,15.0,-,N/A,,Mostly Cloudy,90,2013-08-21 18:01:00
2:53 PM,90.0,75.9,63,30.04,10.0,East,16.1,-,0.01,,Mostly Cloudy,90,2013-08-21 18:53:00
3:53 PM,84.9,77.0,77,30.02,10.0,East,13.8,24.2,0.01,Rain,Light Rain,90,2013-08-21 19:53:00
4:53 PM,90.0,75.0,61,30.01,10.0,East,17.3,-,0.00,,Partly Cloudy,100,2013-08-21 20:53:00
5:53 PM,89.1,75.0,63,30.00,10.0,ESE,18.4,-,N/A,,Scattered Clouds,120,2013-08-21 21:53:00
6:16 PM,84.2,78.8,84,30.00,6.0,East,13.8,21.9,0.08,Rain,Light Rain,100,2013-08-21 22:16:00
6:53 PM,84.9,77.0,77,30.01,10.0,East,17.3,-,0.08,,Mostly Cloudy,90,2013-08-21 22:53:00
7:10 PM,84.2,77.0,79,30.01,10.0,East,13.8,-,0.00,,Scattered Clouds,100,2013-08-21 23:10:00
7:53 PM,84.0,77.0,79,30.02,10.0,ESE,8.1,-,0.00,Rain,Light Rain,110,2013-08-21 23:53:00
8:25 PM,84.2,78.8,84,30.03,10.0,East,8.1,-,0.00,,Mostly Cloudy,100,2013-08-22 00:25:00
8:32 PM,84.2,77.0,79,30.03,10.0,East,8.1,-,0.00,,Scattered Clouds,100,2013-08-22 00:32:00
8:53 PM,84.9,75.9,74,30.04,10.0,ESE,9.2,-,0.00,,Scattered Clouds,120,2013-08-22 00:53:00
9:13 PM,84.2,77.0,79,30.05,10.0,East,6.9,-,N/A,,Mostly Cloudy,100,2013-08-22 01:13:00
9:40 PM,84.2,75.2,74,30.05,7.0,SE,12.7,21.9,0.04,Rain,Rain,140,2013-08-22 01:40:00
9:53 PM,84.0,77.0,79,30.06,10.0,ESE,5.8,-,0.07,Rain,Light Rain,110,2013-08-22 01:53:00
10:53 PM,84.0,75.9,76,30.06,10.0,ESE,9.2,-,0.00,,Partly Cloudy,110,2013-08-22 02:53:00
11:53 PM,78.1,73.9,87,30.08,5.0,SSE,4.6,-,0.17,Rain,Rain,150,2013-08-22 03:53:00